Ana Sayfa
METAR-TAF:

METAR-TAF

Havaalanları :

Mount Airy/Surry County Airport

Mount Airy, Kuzey Carolina, Amerika Birleşik Devletleri

Enlem: 36-27-35N, Boylam: 080-33-11W, yükseklik: 380 m

Güncel hava durumu gözlemi

Rapor saat 16:15 UTC de 14 dakika önce yapıldı.
Rüzgar güneybatıdan 4 kt
Sıcaklık 15°C
Nem 72%
Basınç 1021 hPa
Görüş mesafesi: 16.1 km
Açık gökyüzü

METAR: KMWK 051615Z AUTO 23004KT 10SM CLR 15/10 A3014 RMK AO2 T01500101

Saat: 12:29 (16:29 UTC)


TAF: eksik

4.000'den fazla havaalanı için hava durumu gözlemleri ve tahminleri (METAR ve TAF raporları).

Kullanılabilir istasyonlar harita üzerinde sarı ve kırmızı noktalarla gösterilir.

İstasyonun adını görmek için fareyi noktanın üzerinde gezdirin.

Sonrasında hava gözlem ve tahminlerini görmek için tıklayın.

Haritayı değiştirmek için: yaklaştırmak için siyah artı işaretli yeşil düğmeye ve uzaklaştırmak için de eksi işaretli düğmeye hızla tıklayın; bitişik haritalar için yeşil okları kullanın.


METAR-TAF: